Back to catalog

STARLINK-32873

AliveCommunicationsVLEO
NORAD 62857·PAYLOAD·🇺🇸 United States

Launched Feb 1, 2025 from Vandenberg Space Force Base

Loading…

Next Passes (next 24 hours)

TLE

FreshSource: CelesTrak SupGP

Epoch: Sep 14, 2026, 13:58 UTC

1 62857C 25022D   26257.58243056 -.00009170  00000+0 -27104-3 0  2576
2 62857  53.1596 329.2059 0001415  73.0096 269.1080 15.34383832    12

Track STARLINK-32873 in real time with AllMySat

Download on the App Store